EW9560 Weather Reports


Display with metric or nautical units.
time (UTC)temp
F
wind
direction
speed
MPH
gust
MPH
rain 1hr
in
rain 24hr
in
rain mn
in
humidity
%
barometer
mb
20260902074529 61 290 6.0 14.0 0.00 0.00 0.00 73 1012.4
20260902073032 61 288 9.0 21.0 0.00 0.00 0.00 73 1012.4
20260902071641 61 288 9.0 21.0 0.00 0.00 0.00 71 1012.6
20260902070030 62 285 11.0 20.0 0.00 0.00 0.00 69 1012.8
20260902064534 62 287 10.0 21.0 0.00 0.00 0.00 69 1012.8
20260902061536 63 287 10.0 20.0 0.00 0.00 0.00 69 1013.0
20260902060033 63 287 10.0 22.0 0.00 0.00 0.00 68 1012.9
20260902054535 63 288 9.0 19.0 0.00 0.00 0.00 68 1012.9
20260902053035 63 290 10.0 19.0 0.00 0.00 0.00 67 1013.0
20260902051532 64 286 10.0 21.0 0.00 0.00 0.00 66 1012.8
20260902044535 64 287 10.0 21.0 0.00 0.00 0.00 64 1012.4
20260902041610 64 279 11.0 23.0 0.00 0.00 0.00 63 1012.2
20260902040035 65 279 11.0 24.0 0.00 0.00 0.00 63 1012.2
20260902034646 65 282 10.0 20.0 0.00 0.00 0.00 63 1012.0
20260902033034 65 289 9.0 21.0 0.00 0.00 0.00 64 1011.9
20260902031533 65 283 10.0 22.0 0.00 0.00 0.00 64 1011.9
20260902030031 65 282 10.0 21.0 0.00 0.00 0.00 65 1011.9
20260902024609 65 279 11.0 24.0 0.00 0.00 0.00 64 1011.9
20260902023036 65 276 11.0 25.0 0.00 0.00 0.00 63 1011.6
20260902021538 66 282 10.0 24.0 0.00 0.00 0.00 61 1011.6
20260902014644 67 279 12.0 22.0 0.00 0.00 0.00 59 1011.5
20260902010035 69 280 9.0 19.0 0.00 0.00 0.00 57 1011.3
20260902004538 68 280 10.0 18.0 0.00 0.00 0.00 57 1011.2
20260902003035 68 287 10.0 24.0 0.00 0.00 0.00 58 1011.1
20260902001609 68 288 12.0 24.0 0.00 0.00 0.00 58 1010.9
20260901234532 67 289 11.0 24.0 0.00 0.00 0.00 59 1011.0
20260901233037 68 296 12.0 24.0 0.00 0.00 0.00 58 1011.0
20260901231537 68 292 12.0 24.0 0.00 0.00 0.00 58 1011.2
20260901230036 68 291 12.0 24.0 0.00 0.00 0.00 58 1011.2
20260901224643 68 287 13.0 24.0 0.00 0.00 0.00 58 1011.1
20260901223035 66 288 13.0 30.0 0.00 0.00 0.00 61 1010.9
20260901221535 67 288 13.0 28.0 0.00 0.00 0.00 60 1010.9
20260901220036 68 292 14.0 27.0 0.00 0.00 0.00 58 1010.6
20260901214533 68 289 16.0 27.0 0.00 0.00 0.00 58 1010.5
20260901213031 68 291 16.0 31.0 0.00 0.00 0.00 58 1010.6
20260901211532 68 292 15.0 28.0 0.00 0.00 0.00 57 1010.7
20260901210141 69 288 14.0 30.0 0.00 0.00 0.00 57 1010.7
20260901204533 68 286 12.0 25.0 0.00 0.00 0.00 57 1010.8
20260901203110 68 290 15.0 28.0 0.00 0.00 0.00 58 1010.9
20260901201533 68 286 14.0 26.0 0.00 0.00 0.00 58 1011.0
20260901200110 68 285 13.0 24.0 0.00 0.00 0.00 58 1011.2
20260901194533 67 287 15.0 27.0 0.00 0.00 0.00 59 1011.4
20260901193036 67 290 13.0 27.0 0.00 0.00 0.00 59 1011.6
20260901191534 67 289 13.0 30.0 0.00 0.00 0.00 60 1011.9
20260901190030 67 287 13.0 32.0 0.00 0.00 0.00 60 1011.9
20260901184534 66 287 13.0 27.0 0.00 0.00 0.00 61 1012.0
20260901183111 66 288 11.0 23.0 0.00 0.00 0.00 62 1012.2
20260901181536 65 293 10.0 23.0 0.00 0.00 0.00 64 1012.3
20260901180035 64 290 11.0 27.0 0.00 0.00 0.00 65 1012.6
20260901174537 64 294 12.0 23.0 0.00 0.00 0.00 66 1012.5
20260901173141 64 284 10.0 20.0 0.00 0.00 0.00 68 1012.5
20260901171607 63 288 11.0 22.0 0.00 0.00 0.00 70 1012.4
20260901170110 62 281 12.0 24.0 0.00 0.00 0.00 71 1012.4
20260901163037 61 289 11.0 24.0 0.00 0.00 0.00 74 1012.3
20260901160036 61 290 8.0 15.0 0.00 0.00 0.00 75 1012.4
20260901153037 60 290 7.0 15.0 0.00 0.00 0.00 77 1012.5
20260901151536 59 281 7.0 15.0 0.00 0.00 0.00 77 1012.4
20260901150032 59 285 7.0 14.0 0.00 0.00 0.00 77 1012.3
20260901144606 59 283 6.0 14.0 0.00 0.00 0.00 77 1012.2
20260901143032 59 282 5.0 13.0 0.00 0.00 0.00 77 1012.1
20260901141536 60 282 7.0 19.0 0.00 0.00 0.00 77 1012.0
20260901140037 60 276 8.0 22.0 0.00 0.00 0.00 76 1011.8
20260901134535 60 282 10.0 23.0 0.00 0.00 0.00 75 1011.6
20260901133143 60 284 8.0 17.0 0.00 0.00 0.00 75 1011.5
20260901131531 60 278 9.0 19.0 0.00 0.00 0.00 75 1011.4
20260901130030 61 279 7.0 22.0 0.00 0.00 0.00 74 1011.3
20260901124530 61 275 7.0 17.0 0.00 0.00 0.00 74 1011.1
20260901123144 61 276 9.0 18.0 0.00 0.00 0.00 73 1011.0
20260901121534 62 276 10.0 20.0 0.00 0.00 0.00 71 1011.0
20260901114536 63 279 11.0 23.0 0.00 0.00 0.00 70 1010.9
20260901113034 63 281 11.0 23.0 0.00 0.00 0.00 69 1010.8
20260901111532 64 286 12.0 25.0 0.00 0.00 0.00 68 1010.7
20260901103031 65 288 9.0 17.0 0.00 0.00 0.00 66 1010.6
20260901101530 65 281 7.0 16.0 0.00 0.00 0.00 65 1010.7
20260901100035 65 271 5.0 14.0 0.00 0.00 0.00 64 1010.6
20260901094644 65 273 6.0 15.0 0.00 0.00 0.00 65 1010.6
20260901093034 64 271 5.0 13.0 0.00 0.00 0.00 67 1010.6
20260901091531 60 283 3.0 10.0 0.00 0.00 0.00 72 1010.5
20260901090142 57 224 1.0 5.0 0.00 0.00 0.00 72 1010.4
20260901084535 56 182 2.0 7.0 0.00 0.00 0.00 72 1010.5
20260901083034 56 202 1.0 6.0 0.00 0.00 0.00 73 1010.5
20260901081608 56 194 2.0 6.0 0.00 0.00 0.00 71 1010.6
20260901080034 57 167 1.0 5.0 0.00 0.00 0.00 70 1010.5